Information Last Ob Photographs Calibration Meteogram Network Table Neighbors Monthly Summaries Observation History Wind Roses Custom Wind Roses Data Calendar Satellite Cloud Product Download

29 February 2024 Observation History, [IOW] IOWA CITY, timezone: America/Chicago

Select Date: Time Order:

Show METARs   Show High Frequency MADIS

Previous Day
Time Wind
(mph)
Vis.
(mi.)
Sky Cond.
(100s ft)
Present Wx Temperature (ºF) Relative
Humidity
Pressure Snow
Depth
(in)
Precipitation (in.)
Air Dwpt Feels Like 6 hour altimeter
(in.)
sea level
(mb)
1 hr 3 hr 6 hr
Max.Min.
12:00 AMCalm10 CLR
% 30.4
KIOW 290600Z AUTO 00000KT 10SM CLR M08/M16 A3040 RMK T10801160 MADISHF
12:05 AMCalm10 CLR
% 30.4
KIOW 290605Z AUTO 00000KT 10SM CLR M08/M16 A3040 RMK T10801160 MADISHF
12:10 AMCalm10 CLR
% 30.4
KIOW 290610Z AUTO 00000KT 10SM CLR M08/M17 A3040 RMK T10801170 MADISHF
12:15 AMCalm10 CLR
% 30.4
KIOW 290615Z AUTO 00000KT 10SM CLR M08/M17 A3040 RMK T10801170 MADISHF
12:20 AMCalm10 CLR
% 30.4
KIOW 290620Z AUTO 00000KT 10SM CLR M08/M16 A3040 RMK T10801160 MADISHF
12:25 AMCalm10 CLR
% 30.4
KIOW 290625Z AUTO 00000KT 10SM CLR M08/M16 A3040 RMK T10801160 MADISHF
12:30 AMCalm10 CLR
% 30.4
KIOW 290630Z AUTO 00000KT 10SM CLR M08/M16 A3040 RMK T10801160 MADISHF
12:35 AMCalm10 CLR
% 30.4
KIOW 290635Z AUTO 00000KT 10SM CLR M08/M16 A3040 RMK T10801160 MADISHF
12:40 AMSSE 210 CLR
% 30.4
KIOW 290640Z AUTO 15002KT 10SM CLR M08/M16 A3040 RMK T10801160 MADISHF
12:45 AMCalm10 CLR
% 30.4
KIOW 290645Z AUTO 00000KT 10SM CLR M08/M16 A3040 RMK T10801160 MADISHF
12:50 AMCalm10 CLR
% 30.4
KIOW 290650Z AUTO 00000KT 10SM CLR M08/M16 A3040 RMK T10801160 MADISHF
12:52 AMCalm10 CLR
17417 56% 30.41030.70
KIOW 290652Z AUTO 00000KT 10SM CLR M08/M16 A3040 RMK AO2 SLP307 T10831156
12:55 AMCalm10 CLR
% 30.4
KIOW 290655Z AUTO 00000KT 10SM CLR M08/M16 A3040 RMK T10801160 MADISHF
1:00 AMCalm10 CLR
% 30.4
KIOW 290700Z AUTO 00000KT 10SM CLR M08/M16 A3040 RMK T10801160 MADISHF
1:05 AMCalm10 CLR
% 30.4
KIOW 290705Z AUTO 00000KT 10SM CLR M08/M16 A3040 RMK T10801160 MADISHF
1:10 AMCalm10 CLR
% 30.4
KIOW 290710Z AUTO 00000KT 10SM CLR M08/M16 A3040 RMK T10801160 MADISHF
1:15 AMCalm10 CLR
% 30.4
KIOW 290715Z AUTO 00000KT 10SM CLR M09/M16 A3040 RMK T10901160 MADISHF
1:20 AMCalm10 CLR
% 30.4
KIOW 290720Z AUTO 00000KT 10SM CLR M09/M15 A3040 RMK T10901150 MADISHF
1:25 AMCalm10 CLR
% 30.4
KIOW 290725Z AUTO 00000KT 10SM CLR M09/M15 A3040 RMK T10901150 MADISHF
1:30 AMCalm10 CLR
% 30.4
KIOW 290730Z AUTO 00000KT 10SM CLR M08/M16 A3040 RMK T10801160 MADISHF
1:35 AMCalm10 CLR
% 30.4
KIOW 290735Z AUTO 00000KT 10SM CLR M08/M15 A3040 RMK T10801150 MADISHF
1:40 AMCalm10 CLR
% 30.4
KIOW 290740Z AUTO 00000KT 10SM CLR M08/M14 A3040 RMK T10801140 MADISHF
1:45 AMCalm10 CLR
% 30.4
KIOW 290745Z AUTO 00000KT 10SM CLR M09/M14 A3040 RMK T10901140 MADISHF
1:50 AMCalm10 CLR
% 30.39
KIOW 290750Z AUTO 00000KT 10SM CLR M09/M14 A3039 RMK T10901140 MADISHF
1:52 AMCalm10 CLR
16616 64% 30.391030.20
KIOW 290752Z AUTO 00000KT 10SM CLR M09/M14 A3039 RMK AO2 SLP302 T10891144
2:00 AMCalm10 CLR
% 30.4
KIOW 290800Z AUTO 00000KT 10SM CLR M08/M15 A3040 RMK T10801150 MADISHF
2:05 AMCalm10 CLR
% 30.4
KIOW 290805Z AUTO 00000KT 10SM CLR M09/M14 A3040 RMK T10901140 MADISHF
2:10 AMCalm10 CLR
% 30.4
KIOW 290810Z AUTO 00000KT 10SM CLR M08/M14 A3040 RMK T10801140 MADISHF
2:15 AMCalm10 CLR
% 30.39
KIOW 290815Z AUTO 00000KT 10SM CLR M08/M14 A3039 RMK T10801140 MADISHF
2:20 AMCalm10 CLR
% 30.39
KIOW 290820Z AUTO 00000KT 10SM CLR M08/M14 A3039 RMK T10801140 MADISHF
2:25 AMCalm10 CLR
% 30.39
KIOW 290825Z AUTO 00000KT 10SM CLR M08/M15 A3039 RMK T10801150 MADISHF

The IEM API webservice that provided data to this page. For more details, see documentation.

Data Notes

  • For recent years, this page also optionally shows observations from the MADIS High Frequency METAR dataset. This dataset had a problem with temperatures detailed here.